Home   Weather   Zwickau   Past weeks

Flag for Germany Past Weather in Zwickau, Saxony, Germany — Yesterday and Last 2 Weeks

Now
59 °F

Cool.


Feels Like: 59 °F
Forecast: 50 / 69 °F
Wind: 5 mph from West

Location: Altenburg Nobitz

Current Time: Sep 26, 2016 at 10:51:33 PM

Latest Report: Sep 26, 2016 at 7:50 PM


Visibility: N/A

Pressure: 30.21 "Hg

Humidity: 88%

Dew Point: 55 °F

Location of ZwickauLocation

Past Weather in Zwickau — Graph

°F

Zwickau Temperature Yesterday

Maximum temperature yesterday: 73 °F (at 2:50 PM)
Minimum temperature yesterday: 57 °F (at 9:20 AM)
Average temperature yesterday: 68 °F

High & Low Weather Summary for the Past Weeks

 TemperatureHumidityPressure
High81 °F (Sep 15, 2:20 PM)100% (Sep 19, 9:20 AM)30.33 "Hg (Sep 19, 9:20 AM)
Low52 °F (Sep 20, 8:50 AM)37% (Sep 15, 12:50 PM)29.89 "Hg (Sep 15, 6:20 PM)
Average65 °F64%30.09 "Hg
* Reported Sep 15 8:50 AM — Sep 26 7:50 PM, Zwickau, Weather by CustomWeather, © 2016

Note: Actual official high and low records may vary slightly from our data, if they occured in-between our weather recording intervals... More about our weather records

Advertising

Zwickau Weather History for the Previous 24 Hours

Scroll right to see more
 ConditionsComfort  
Time TempWeatherWind HumidityBarometerVisibility
7:50 PM
Mon, Sep 26
59 °FCool.5 mph88%30.21 "HgN/A
7:20 PM61 °FPassing clouds.5 mph83%30.18 "HgN/A
6:50 PM64 °FPartly sunny.5 mph73%30.18 "HgN/A
6:20 PM64 °FPartly sunny.6 mph73%30.18 "HgN/A
5:50 PM66 °FPartly sunny.5 mph68%30.18 "HgN/A
5:20 PM66 °FPartly sunny.3 mph68%30.18 "HgN/A
4:50 PM66 °FScattered clouds.6 mph68%30.18 "HgN/A
4:20 PM66 °FScattered clouds.5 mph68%30.18 "HgN/A
3:50 PM66 °FPartly sunny.2 mph68%30.18 "HgN/A
3:20 PM66 °FPartly sunny.2 mph68%30.18 "HgN/A
2:50 PM66 °FPartly sunny.5 mph68%30.18 "HgN/A
1:50 PM64 °FPartly sunny.6 mph73%30.18 "HgN/A
1:20 PM64 °FPartly sunny.7 mph73%30.18 "HgN/A
12:50 PM63 °FPartly sunny.5 mph77%30.18 "HgN/A
12:20 PM61 °FPartly sunny.1 mph83%30.18 "Hg6 mi
11:50 AM61 °FPartly sunny.5 mph83%30.18 "Hg6 mi
10:20 AM57 °FLow clouds.6 mph94%30.18 "Hg4 mi
9:50 AM57 °FLow clouds.5 mph94%30.18 "Hg6 mi
9:20 AM57 °FLow clouds.6 mph88%30.18 "HgN/A
Weather by CustomWeather, © 2016

See weather overviewHow to use our weather pages